<?xml version="1.0"?>
<gpx xmlns="http://www.topografix.com/GPX/1/1" xmlns:xsi="http://www.w3.org/2001/XMLSchema-instance" version="1.1" creator="GPX RubyGem 1.0.0 -- http://dougfales.github.io/gpx/" xsi:schemaLocation="http://www.topografix.com/GPX/1/1 http://www.topografix.com/GPX/1/1/gpx.xsd">
  <metadata>
    <name/>
    <time>2026-05-03T05:56:31+00:00</time>
    <bound minlat="90.0" minlon="180.0" maxlat="-90.0" maxlon="-180.0"/>
  </metadata>
  <trk>
    <name/>
    <trkseg>
      <trkpt lat="59.767313" lon="10.282569">
        <time>1970-01-01T00:00:00+00:00</time>
        <ele>15.0</ele>
      </trkpt>
      <trkpt lat="59.767445" lon="10.282707">
        <time>1970-01-01T00:00:00+00:00</time>
        <ele>16.0</ele>
      </trkpt>
      <trkpt lat="59.767543" lon="10.28289">
        <time>1970-01-01T00:00:00+00:00</time>
        <ele>15.0</ele>
      </trkpt>
      <trkpt lat="59.767571" lon="10.282868">
        <time>1970-01-01T00:00:00+00:00</time>
        <ele>15.0</ele>
      </trkpt>
      <trkpt lat="59.767634" lon="10.282932">
        <time>1970-01-01T00:00:00+00:00</time>
        <ele>15.0</ele>
      </trkpt>
      <trkpt lat="59.767651" lon="10.282981">
        <time>1970-01-01T00:00:00+00:00</time>
        <ele>15.0</ele>
      </trkpt>
      <trkpt lat="59.76771" lon="10.282932">
        <time>1970-01-01T00:00:00+00:00</time>
        <ele>15.0</ele>
      </trkpt>
      <trkpt lat="59.76778" lon="10.282848">
        <time>1970-01-01T00:00:00+00:00</time>
        <ele>16.0</ele>
      </trkpt>
      <trkpt lat="59.767818" lon="10.282917">
        <time>1970-01-01T00:00:00+00:00</time>
        <ele>15.0</ele>
      </trkpt>
      <trkpt lat="59.767899" lon="10.282867">
        <time>1970-01-01T00:00:00+00:00</time>
        <ele>15.0</ele>
      </trkpt>
      <trkpt lat="59.767955" lon="10.28287">
        <time>1970-01-01T00:00:00+00:00</time>
        <ele>15.0</ele>
      </trkpt>
      <trkpt lat="59.768066" lon="10.282967">
        <time>1970-01-01T00:00:00+00:00</time>
        <ele>15.0</ele>
      </trkpt>
      <trkpt lat="59.769354" lon="10.284185">
        <time>1970-01-01T00:00:00+00:00</time>
        <ele>19.0</ele>
      </trkpt>
      <trkpt lat="59.769658" lon="10.284383">
        <time>1970-01-01T00:00:00+00:00</time>
        <ele>20.0</ele>
      </trkpt>
      <trkpt lat="59.76998" lon="10.28448">
        <time>1970-01-01T00:00:00+00:00</time>
        <ele>23.0</ele>
      </trkpt>
      <trkpt lat="59.770163" lon="10.284489">
        <time>1970-01-01T00:00:00+00:00</time>
        <ele>25.0</ele>
      </trkpt>
      <trkpt lat="59.770168" lon="10.284545">
        <time>1970-01-01T00:00:00+00:00</time>
        <ele>25.0</ele>
      </trkpt>
      <trkpt lat="59.770234" lon="10.284749">
        <time>1970-01-01T00:00:00+00:00</time>
        <ele>26.0</ele>
      </trkpt>
      <trkpt lat="59.77138" lon="10.28747">
        <time>1970-01-01T00:00:00+00:00</time>
        <ele>49.0</ele>
      </trkpt>
      <trkpt lat="59.77143" lon="10.287605">
        <time>1970-01-01T00:00:00+00:00</time>
        <ele>50.0</ele>
      </trkpt>
      <trkpt lat="59.771454" lon="10.287678">
        <time>1970-01-01T00:00:00+00:00</time>
        <ele>51.0</ele>
      </trkpt>
      <trkpt lat="59.771471" lon="10.287737">
        <time>1970-01-01T00:00:00+00:00</time>
        <ele>52.0</ele>
      </trkpt>
      <trkpt lat="59.771683" lon="10.288511">
        <time>1970-01-01T00:00:00+00:00</time>
        <ele>56.0</ele>
      </trkpt>
      <trkpt lat="59.771748" lon="10.288839">
        <time>1970-01-01T00:00:00+00:00</time>
        <ele>59.0</ele>
      </trkpt>
      <trkpt lat="59.771771" lon="10.288984">
        <time>1970-01-01T00:00:00+00:00</time>
        <ele>59.0</ele>
      </trkpt>
      <trkpt lat="59.771807" lon="10.289277">
        <time>1970-01-01T00:00:00+00:00</time>
        <ele>60.0</ele>
      </trkpt>
      <trkpt lat="59.771882" lon="10.290124">
        <time>1970-01-01T00:00:00+00:00</time>
        <ele>66.0</ele>
      </trkpt>
      <trkpt lat="59.771892" lon="10.290234">
        <time>1970-01-01T00:00:00+00:00</time>
        <ele>66.0</ele>
      </trkpt>
      <trkpt lat="59.77192" lon="10.290674">
        <time>1970-01-01T00:00:00+00:00</time>
        <ele>66.0</ele>
      </trkpt>
      <trkpt lat="59.772018" lon="10.291174">
        <time>1970-01-01T00:00:00+00:00</time>
        <ele>70.0</ele>
      </trkpt>
      <trkpt lat="59.772067" lon="10.291239">
        <time>1970-01-01T00:00:00+00:00</time>
        <ele>71.0</ele>
      </trkpt>
      <trkpt lat="59.772092" lon="10.291294">
        <time>1970-01-01T00:00:00+00:00</time>
        <ele>71.0</ele>
      </trkpt>
      <trkpt lat="59.772131" lon="10.291351">
        <time>1970-01-01T00:00:00+00:00</time>
        <ele>72.0</ele>
      </trkpt>
      <trkpt lat="59.772153" lon="10.291363">
        <time>1970-01-01T00:00:00+00:00</time>
        <ele>73.0</ele>
      </trkpt>
      <trkpt lat="59.772198" lon="10.291463">
        <time>1970-01-01T00:00:00+00:00</time>
        <ele>73.0</ele>
      </trkpt>
      <trkpt lat="59.772225" lon="10.291602">
        <time>1970-01-01T00:00:00+00:00</time>
        <ele>74.0</ele>
      </trkpt>
      <trkpt lat="59.77232" lon="10.292439">
        <time>1970-01-01T00:00:00+00:00</time>
        <ele>77.0</ele>
      </trkpt>
      <trkpt lat="59.772384" lon="10.292799">
        <time>1970-01-01T00:00:00+00:00</time>
        <ele>81.0</ele>
      </trkpt>
      <trkpt lat="59.772493" lon="10.293016">
        <time>1970-01-01T00:00:00+00:00</time>
        <ele>85.0</ele>
      </trkpt>
      <trkpt lat="59.77265" lon="10.293188">
        <time>1970-01-01T00:00:00+00:00</time>
        <ele>90.0</ele>
      </trkpt>
      <trkpt lat="59.772751" lon="10.293257">
        <time>1970-01-01T00:00:00+00:00</time>
        <ele>92.0</ele>
      </trkpt>
      <trkpt lat="59.772822" lon="10.293341">
        <time>1970-01-01T00:00:00+00:00</time>
        <ele>94.0</ele>
      </trkpt>
      <trkpt lat="59.772918" lon="10.293495">
        <time>1970-01-01T00:00:00+00:00</time>
        <ele>97.0</ele>
      </trkpt>
      <trkpt lat="59.772997" lon="10.293665">
        <time>1970-01-01T00:00:00+00:00</time>
        <ele>98.0</ele>
      </trkpt>
      <trkpt lat="59.773049" lon="10.293775">
        <time>1970-01-01T00:00:00+00:00</time>
        <ele>99.0</ele>
      </trkpt>
      <trkpt lat="59.773132" lon="10.293873">
        <time>1970-01-01T00:00:00+00:00</time>
        <ele>101.0</ele>
      </trkpt>
      <trkpt lat="59.773213" lon="10.293833">
        <time>1970-01-01T00:00:00+00:00</time>
        <ele>103.0</ele>
      </trkpt>
      <trkpt lat="59.773418" lon="10.29385">
        <time>1970-01-01T00:00:00+00:00</time>
        <ele>110.0</ele>
      </trkpt>
      <trkpt lat="59.773547" lon="10.293938">
        <time>1970-01-01T00:00:00+00:00</time>
        <ele>113.0</ele>
      </trkpt>
      <trkpt lat="59.773778" lon="10.29425">
        <time>1970-01-01T00:00:00+00:00</time>
        <ele>122.0</ele>
      </trkpt>
      <trkpt lat="59.774045" lon="10.2945">
        <time>1970-01-01T00:00:00+00:00</time>
        <ele>124.0</ele>
      </trkpt>
      <trkpt lat="59.774239" lon="10.294801">
        <time>1970-01-01T00:00:00+00:00</time>
        <ele>126.0</ele>
      </trkpt>
      <trkpt lat="59.774453" lon="10.295033">
        <time>1970-01-01T00:00:00+00:00</time>
        <ele>130.0</ele>
      </trkpt>
      <trkpt lat="59.774497" lon="10.29522">
        <time>1970-01-01T00:00:00+00:00</time>
        <ele>132.0</ele>
      </trkpt>
      <trkpt lat="59.774568" lon="10.295366">
        <time>1970-01-01T00:00:00+00:00</time>
        <ele>134.0</ele>
      </trkpt>
      <trkpt lat="59.77461" lon="10.295515">
        <time>1970-01-01T00:00:00+00:00</time>
        <ele>136.0</ele>
      </trkpt>
      <trkpt lat="59.774767" lon="10.295852">
        <time>1970-01-01T00:00:00+00:00</time>
        <ele>139.0</ele>
      </trkpt>
      <trkpt lat="59.77488" lon="10.295976">
        <time>1970-01-01T00:00:00+00:00</time>
        <ele>141.0</ele>
      </trkpt>
      <trkpt lat="59.774993" lon="10.296011">
        <time>1970-01-01T00:00:00+00:00</time>
        <ele>142.0</ele>
      </trkpt>
      <trkpt lat="59.775092" lon="10.295938">
        <time>1970-01-01T00:00:00+00:00</time>
        <ele>143.0</ele>
      </trkpt>
      <trkpt lat="59.775141" lon="10.296026">
        <time>1970-01-01T00:00:00+00:00</time>
        <ele>143.0</ele>
      </trkpt>
      <trkpt lat="59.775236" lon="10.296237">
        <time>1970-01-01T00:00:00+00:00</time>
        <ele>145.0</ele>
      </trkpt>
      <trkpt lat="59.775282" lon="10.296416">
        <time>1970-01-01T00:00:00+00:00</time>
        <ele>146.0</ele>
      </trkpt>
      <trkpt lat="59.775343" lon="10.296521">
        <time>1970-01-01T00:00:00+00:00</time>
        <ele>149.0</ele>
      </trkpt>
      <trkpt lat="59.77536" lon="10.296632">
        <time>1970-01-01T00:00:00+00:00</time>
        <ele>150.0</ele>
      </trkpt>
      <trkpt lat="59.775426" lon="10.296665">
        <time>1970-01-01T00:00:00+00:00</time>
        <ele>152.0</ele>
      </trkpt>
      <trkpt lat="59.775732" lon="10.29652">
        <time>1970-01-01T00:00:00+00:00</time>
        <ele>160.0</ele>
      </trkpt>
      <trkpt lat="59.775878" lon="10.296513">
        <time>1970-01-01T00:00:00+00:00</time>
        <ele>164.0</ele>
      </trkpt>
      <trkpt lat="59.775936" lon="10.296553">
        <time>1970-01-01T00:00:00+00:00</time>
        <ele>166.0</ele>
      </trkpt>
      <trkpt lat="59.776001" lon="10.29668">
        <time>1970-01-01T00:00:00+00:00</time>
        <ele>169.0</ele>
      </trkpt>
      <trkpt lat="59.776021" lon="10.29709">
        <time>1970-01-01T00:00:00+00:00</time>
        <ele>173.0</ele>
      </trkpt>
      <trkpt lat="59.776064" lon="10.29723">
        <time>1970-01-01T00:00:00+00:00</time>
        <ele>176.0</ele>
      </trkpt>
      <trkpt lat="59.776026" lon="10.297375">
        <time>1970-01-01T00:00:00+00:00</time>
        <ele>176.0</ele>
      </trkpt>
      <trkpt lat="59.776027" lon="10.297421">
        <time>1970-01-01T00:00:00+00:00</time>
        <ele>177.0</ele>
      </trkpt>
      <trkpt lat="59.776059" lon="10.297491">
        <time>1970-01-01T00:00:00+00:00</time>
        <ele>179.0</ele>
      </trkpt>
      <trkpt lat="59.776111" lon="10.297801">
        <time>1970-01-01T00:00:00+00:00</time>
        <ele>183.0</ele>
      </trkpt>
      <trkpt lat="59.776146" lon="10.297871">
        <time>1970-01-01T00:00:00+00:00</time>
        <ele>184.0</ele>
      </trkpt>
      <trkpt lat="59.776156" lon="10.298046">
        <time>1970-01-01T00:00:00+00:00</time>
        <ele>185.0</ele>
      </trkpt>
      <trkpt lat="59.776174" lon="10.298102">
        <time>1970-01-01T00:00:00+00:00</time>
        <ele>186.0</ele>
      </trkpt>
      <trkpt lat="59.776202" lon="10.298126">
        <time>1970-01-01T00:00:00+00:00</time>
        <ele>186.0</ele>
      </trkpt>
      <trkpt lat="59.776301" lon="10.298128">
        <time>1970-01-01T00:00:00+00:00</time>
        <ele>190.0</ele>
      </trkpt>
      <trkpt lat="59.776343" lon="10.298232">
        <time>1970-01-01T00:00:00+00:00</time>
        <ele>192.0</ele>
      </trkpt>
      <trkpt lat="59.776327" lon="10.298375">
        <time>1970-01-01T00:00:00+00:00</time>
        <ele>193.0</ele>
      </trkpt>
      <trkpt lat="59.776337" lon="10.298508">
        <time>1970-01-01T00:00:00+00:00</time>
        <ele>194.0</ele>
      </trkpt>
      <trkpt lat="59.776382" lon="10.298634">
        <time>1970-01-01T00:00:00+00:00</time>
        <ele>197.0</ele>
      </trkpt>
      <trkpt lat="59.776403" lon="10.298759">
        <time>1970-01-01T00:00:00+00:00</time>
        <ele>198.0</ele>
      </trkpt>
      <trkpt lat="59.77645" lon="10.298843">
        <time>1970-01-01T00:00:00+00:00</time>
        <ele>201.0</ele>
      </trkpt>
      <trkpt lat="59.77658" lon="10.298939">
        <time>1970-01-01T00:00:00+00:00</time>
        <ele>206.0</ele>
      </trkpt>
      <trkpt lat="59.7767" lon="10.298861">
        <time>1970-01-01T00:00:00+00:00</time>
        <ele>209.0</ele>
      </trkpt>
      <trkpt lat="59.776824" lon="10.298822">
        <time>1970-01-01T00:00:00+00:00</time>
        <ele>213.0</ele>
      </trkpt>
      <trkpt lat="59.776965" lon="10.299004">
        <time>1970-01-01T00:00:00+00:00</time>
        <ele>219.0</ele>
      </trkpt>
      <trkpt lat="59.777044" lon="10.298896">
        <time>1970-01-01T00:00:00+00:00</time>
        <ele>219.0</ele>
      </trkpt>
      <trkpt lat="59.777122" lon="10.298883">
        <time>1970-01-01T00:00:00+00:00</time>
        <ele>221.0</ele>
      </trkpt>
      <trkpt lat="59.777122" lon="10.298883">
        <time>1970-01-01T00:00:00+00:00</time>
        <ele>221.0</ele>
      </trkpt>
      <trkpt lat="59.777044" lon="10.298896">
        <time>1970-01-01T00:00:00+00:00</time>
        <ele>219.0</ele>
      </trkpt>
      <trkpt lat="59.776965" lon="10.299004">
        <time>1970-01-01T00:00:00+00:00</time>
        <ele>219.0</ele>
      </trkpt>
      <trkpt lat="59.776824" lon="10.298822">
        <time>1970-01-01T00:00:00+00:00</time>
        <ele>213.0</ele>
      </trkpt>
      <trkpt lat="59.7767" lon="10.298861">
        <time>1970-01-01T00:00:00+00:00</time>
        <ele>209.0</ele>
      </trkpt>
      <trkpt lat="59.77658" lon="10.298939">
        <time>1970-01-01T00:00:00+00:00</time>
        <ele>206.0</ele>
      </trkpt>
      <trkpt lat="59.77645" lon="10.298843">
        <time>1970-01-01T00:00:00+00:00</time>
        <ele>201.0</ele>
      </trkpt>
      <trkpt lat="59.776403" lon="10.298759">
        <time>1970-01-01T00:00:00+00:00</time>
        <ele>198.0</ele>
      </trkpt>
      <trkpt lat="59.776382" lon="10.298634">
        <time>1970-01-01T00:00:00+00:00</time>
        <ele>197.0</ele>
      </trkpt>
      <trkpt lat="59.776337" lon="10.298508">
        <time>1970-01-01T00:00:00+00:00</time>
        <ele>194.0</ele>
      </trkpt>
      <trkpt lat="59.776327" lon="10.298375">
        <time>1970-01-01T00:00:00+00:00</time>
        <ele>193.0</ele>
      </trkpt>
      <trkpt lat="59.776343" lon="10.298232">
        <time>1970-01-01T00:00:00+00:00</time>
        <ele>192.0</ele>
      </trkpt>
      <trkpt lat="59.776301" lon="10.298128">
        <time>1970-01-01T00:00:00+00:00</time>
        <ele>190.0</ele>
      </trkpt>
      <trkpt lat="59.776202" lon="10.298126">
        <time>1970-01-01T00:00:00+00:00</time>
        <ele>186.0</ele>
      </trkpt>
      <trkpt lat="59.776174" lon="10.298102">
        <time>1970-01-01T00:00:00+00:00</time>
        <ele>186.0</ele>
      </trkpt>
      <trkpt lat="59.776156" lon="10.298046">
        <time>1970-01-01T00:00:00+00:00</time>
        <ele>185.0</ele>
      </trkpt>
      <trkpt lat="59.776146" lon="10.297871">
        <time>1970-01-01T00:00:00+00:00</time>
        <ele>184.0</ele>
      </trkpt>
      <trkpt lat="59.776111" lon="10.297801">
        <time>1970-01-01T00:00:00+00:00</time>
        <ele>183.0</ele>
      </trkpt>
      <trkpt lat="59.776059" lon="10.297491">
        <time>1970-01-01T00:00:00+00:00</time>
        <ele>179.0</ele>
      </trkpt>
      <trkpt lat="59.776027" lon="10.297421">
        <time>1970-01-01T00:00:00+00:00</time>
        <ele>177.0</ele>
      </trkpt>
      <trkpt lat="59.776026" lon="10.297375">
        <time>1970-01-01T00:00:00+00:00</time>
        <ele>176.0</ele>
      </trkpt>
      <trkpt lat="59.776064" lon="10.29723">
        <time>1970-01-01T00:00:00+00:00</time>
        <ele>176.0</ele>
      </trkpt>
      <trkpt lat="59.776021" lon="10.29709">
        <time>1970-01-01T00:00:00+00:00</time>
        <ele>173.0</ele>
      </trkpt>
      <trkpt lat="59.776001" lon="10.29668">
        <time>1970-01-01T00:00:00+00:00</time>
        <ele>169.0</ele>
      </trkpt>
      <trkpt lat="59.775936" lon="10.296553">
        <time>1970-01-01T00:00:00+00:00</time>
        <ele>166.0</ele>
      </trkpt>
      <trkpt lat="59.775878" lon="10.296513">
        <time>1970-01-01T00:00:00+00:00</time>
        <ele>164.0</ele>
      </trkpt>
      <trkpt lat="59.775732" lon="10.29652">
        <time>1970-01-01T00:00:00+00:00</time>
        <ele>160.0</ele>
      </trkpt>
      <trkpt lat="59.775426" lon="10.296665">
        <time>1970-01-01T00:00:00+00:00</time>
        <ele>152.0</ele>
      </trkpt>
      <trkpt lat="59.77536" lon="10.296632">
        <time>1970-01-01T00:00:00+00:00</time>
        <ele>150.0</ele>
      </trkpt>
      <trkpt lat="59.775343" lon="10.296521">
        <time>1970-01-01T00:00:00+00:00</time>
        <ele>149.0</ele>
      </trkpt>
      <trkpt lat="59.775282" lon="10.296416">
        <time>1970-01-01T00:00:00+00:00</time>
        <ele>146.0</ele>
      </trkpt>
      <trkpt lat="59.775236" lon="10.296237">
        <time>1970-01-01T00:00:00+00:00</time>
        <ele>145.0</ele>
      </trkpt>
      <trkpt lat="59.775141" lon="10.296026">
        <time>1970-01-01T00:00:00+00:00</time>
        <ele>143.0</ele>
      </trkpt>
      <trkpt lat="59.775092" lon="10.295938">
        <time>1970-01-01T00:00:00+00:00</time>
        <ele>143.0</ele>
      </trkpt>
      <trkpt lat="59.774993" lon="10.296011">
        <time>1970-01-01T00:00:00+00:00</time>
        <ele>142.0</ele>
      </trkpt>
      <trkpt lat="59.77488" lon="10.295976">
        <time>1970-01-01T00:00:00+00:00</time>
        <ele>141.0</ele>
      </trkpt>
      <trkpt lat="59.774767" lon="10.295852">
        <time>1970-01-01T00:00:00+00:00</time>
        <ele>139.0</ele>
      </trkpt>
      <trkpt lat="59.77461" lon="10.295515">
        <time>1970-01-01T00:00:00+00:00</time>
        <ele>136.0</ele>
      </trkpt>
      <trkpt lat="59.774568" lon="10.295366">
        <time>1970-01-01T00:00:00+00:00</time>
        <ele>134.0</ele>
      </trkpt>
      <trkpt lat="59.774497" lon="10.29522">
        <time>1970-01-01T00:00:00+00:00</time>
        <ele>132.0</ele>
      </trkpt>
      <trkpt lat="59.774453" lon="10.295033">
        <time>1970-01-01T00:00:00+00:00</time>
        <ele>130.0</ele>
      </trkpt>
      <trkpt lat="59.774239" lon="10.294801">
        <time>1970-01-01T00:00:00+00:00</time>
        <ele>126.0</ele>
      </trkpt>
      <trkpt lat="59.774045" lon="10.2945">
        <time>1970-01-01T00:00:00+00:00</time>
        <ele>124.0</ele>
      </trkpt>
      <trkpt lat="59.773778" lon="10.29425">
        <time>1970-01-01T00:00:00+00:00</time>
        <ele>122.0</ele>
      </trkpt>
      <trkpt lat="59.773547" lon="10.293938">
        <time>1970-01-01T00:00:00+00:00</time>
        <ele>113.0</ele>
      </trkpt>
      <trkpt lat="59.773418" lon="10.29385">
        <time>1970-01-01T00:00:00+00:00</time>
        <ele>110.0</ele>
      </trkpt>
      <trkpt lat="59.773213" lon="10.293833">
        <time>1970-01-01T00:00:00+00:00</time>
        <ele>103.0</ele>
      </trkpt>
      <trkpt lat="59.773132" lon="10.293873">
        <time>1970-01-01T00:00:00+00:00</time>
        <ele>101.0</ele>
      </trkpt>
      <trkpt lat="59.773049" lon="10.293775">
        <time>1970-01-01T00:00:00+00:00</time>
        <ele>99.0</ele>
      </trkpt>
      <trkpt lat="59.772997" lon="10.293665">
        <time>1970-01-01T00:00:00+00:00</time>
        <ele>98.0</ele>
      </trkpt>
      <trkpt lat="59.772918" lon="10.293495">
        <time>1970-01-01T00:00:00+00:00</time>
        <ele>97.0</ele>
      </trkpt>
      <trkpt lat="59.772822" lon="10.293341">
        <time>1970-01-01T00:00:00+00:00</time>
        <ele>94.0</ele>
      </trkpt>
      <trkpt lat="59.772751" lon="10.293257">
        <time>1970-01-01T00:00:00+00:00</time>
        <ele>92.0</ele>
      </trkpt>
      <trkpt lat="59.77265" lon="10.293188">
        <time>1970-01-01T00:00:00+00:00</time>
        <ele>90.0</ele>
      </trkpt>
      <trkpt lat="59.772493" lon="10.293016">
        <time>1970-01-01T00:00:00+00:00</time>
        <ele>85.0</ele>
      </trkpt>
      <trkpt lat="59.772384" lon="10.292799">
        <time>1970-01-01T00:00:00+00:00</time>
        <ele>81.0</ele>
      </trkpt>
      <trkpt lat="59.77232" lon="10.292439">
        <time>1970-01-01T00:00:00+00:00</time>
        <ele>77.0</ele>
      </trkpt>
      <trkpt lat="59.772225" lon="10.291602">
        <time>1970-01-01T00:00:00+00:00</time>
        <ele>74.0</ele>
      </trkpt>
      <trkpt lat="59.772198" lon="10.291463">
        <time>1970-01-01T00:00:00+00:00</time>
        <ele>73.0</ele>
      </trkpt>
      <trkpt lat="59.772153" lon="10.291363">
        <time>1970-01-01T00:00:00+00:00</time>
        <ele>73.0</ele>
      </trkpt>
      <trkpt lat="59.772131" lon="10.291351">
        <time>1970-01-01T00:00:00+00:00</time>
        <ele>72.0</ele>
      </trkpt>
      <trkpt lat="59.772092" lon="10.291294">
        <time>1970-01-01T00:00:00+00:00</time>
        <ele>71.0</ele>
      </trkpt>
      <trkpt lat="59.772067" lon="10.291239">
        <time>1970-01-01T00:00:00+00:00</time>
        <ele>71.0</ele>
      </trkpt>
      <trkpt lat="59.772018" lon="10.291174">
        <time>1970-01-01T00:00:00+00:00</time>
        <ele>70.0</ele>
      </trkpt>
      <trkpt lat="59.77192" lon="10.290674">
        <time>1970-01-01T00:00:00+00:00</time>
        <ele>66.0</ele>
      </trkpt>
      <trkpt lat="59.771892" lon="10.290234">
        <time>1970-01-01T00:00:00+00:00</time>
        <ele>66.0</ele>
      </trkpt>
      <trkpt lat="59.771882" lon="10.290124">
        <time>1970-01-01T00:00:00+00:00</time>
        <ele>66.0</ele>
      </trkpt>
      <trkpt lat="59.771807" lon="10.289277">
        <time>1970-01-01T00:00:00+00:00</time>
        <ele>60.0</ele>
      </trkpt>
      <trkpt lat="59.771771" lon="10.288984">
        <time>1970-01-01T00:00:00+00:00</time>
        <ele>59.0</ele>
      </trkpt>
      <trkpt lat="59.771748" lon="10.288839">
        <time>1970-01-01T00:00:00+00:00</time>
        <ele>59.0</ele>
      </trkpt>
      <trkpt lat="59.771683" lon="10.288511">
        <time>1970-01-01T00:00:00+00:00</time>
        <ele>56.0</ele>
      </trkpt>
      <trkpt lat="59.771471" lon="10.287737">
        <time>1970-01-01T00:00:00+00:00</time>
        <ele>52.0</ele>
      </trkpt>
      <trkpt lat="59.771454" lon="10.287678">
        <time>1970-01-01T00:00:00+00:00</time>
        <ele>51.0</ele>
      </trkpt>
      <trkpt lat="59.77143" lon="10.287605">
        <time>1970-01-01T00:00:00+00:00</time>
        <ele>50.0</ele>
      </trkpt>
      <trkpt lat="59.77138" lon="10.28747">
        <time>1970-01-01T00:00:00+00:00</time>
        <ele>49.0</ele>
      </trkpt>
      <trkpt lat="59.770234" lon="10.284749">
        <time>1970-01-01T00:00:00+00:00</time>
        <ele>26.0</ele>
      </trkpt>
      <trkpt lat="59.770168" lon="10.284545">
        <time>1970-01-01T00:00:00+00:00</time>
        <ele>25.0</ele>
      </trkpt>
      <trkpt lat="59.770163" lon="10.284489">
        <time>1970-01-01T00:00:00+00:00</time>
        <ele>25.0</ele>
      </trkpt>
      <trkpt lat="59.76998" lon="10.28448">
        <time>1970-01-01T00:00:00+00:00</time>
        <ele>23.0</ele>
      </trkpt>
      <trkpt lat="59.769658" lon="10.284383">
        <time>1970-01-01T00:00:00+00:00</time>
        <ele>20.0</ele>
      </trkpt>
      <trkpt lat="59.769354" lon="10.284185">
        <time>1970-01-01T00:00:00+00:00</time>
        <ele>19.0</ele>
      </trkpt>
      <trkpt lat="59.768066" lon="10.282967">
        <time>1970-01-01T00:00:00+00:00</time>
        <ele>15.0</ele>
      </trkpt>
      <trkpt lat="59.767955" lon="10.28287">
        <time>1970-01-01T00:00:00+00:00</time>
        <ele>15.0</ele>
      </trkpt>
      <trkpt lat="59.767899" lon="10.282867">
        <time>1970-01-01T00:00:00+00:00</time>
        <ele>15.0</ele>
      </trkpt>
      <trkpt lat="59.767818" lon="10.282917">
        <time>1970-01-01T00:00:00+00:00</time>
        <ele>15.0</ele>
      </trkpt>
      <trkpt lat="59.76778" lon="10.282848">
        <time>1970-01-01T00:00:00+00:00</time>
        <ele>16.0</ele>
      </trkpt>
      <trkpt lat="59.76771" lon="10.282932">
        <time>1970-01-01T00:00:00+00:00</time>
        <ele>15.0</ele>
      </trkpt>
      <trkpt lat="59.767651" lon="10.282981">
        <time>1970-01-01T00:00:00+00:00</time>
        <ele>15.0</ele>
      </trkpt>
      <trkpt lat="59.767634" lon="10.282932">
        <time>1970-01-01T00:00:00+00:00</time>
        <ele>15.0</ele>
      </trkpt>
      <trkpt lat="59.767571" lon="10.282868">
        <time>1970-01-01T00:00:00+00:00</time>
        <ele>15.0</ele>
      </trkpt>
      <trkpt lat="59.767543" lon="10.28289">
        <time>1970-01-01T00:00:00+00:00</time>
        <ele>15.0</ele>
      </trkpt>
      <trkpt lat="59.767445" lon="10.282707">
        <time>1970-01-01T00:00:00+00:00</time>
        <ele>16.0</ele>
      </trkpt>
      <trkpt lat="59.767313" lon="10.282569">
        <time>1970-01-01T00:00:00+00:00</time>
        <ele>15.0</ele>
      </trkpt>
    </trkseg>
  </trk>
</gpx>
